AirNav   Duncan Aviation - Near you to keep you flying
 
 1214 users online  

82A Marion County Airport
Buena Vista, Georgia, USA

GOING TO BUENA VISTA?


FAA INFORMATION EFFECTIVE 21 APRIL 2022

Location

FAA Identifier: 82A
Lat/Long: 32-16-58.1000N 084-30-13.3000W
32-16.968333N 084-30.221667W
32.2828056,-84.5036944
(estimated)
Elevation: 682 ft. / 207.9 m (surveyed)
Variation: 02W (1985)
From city: 3 miles SE of BUENA VISTA, GA
Time zone: UTC -4 (UTC -5 during Standard Time)
Zip code: 31803

Airport Operations

Airport use: Open to the public
Activation date: 01/1975
Control tower: no
ARTCC: ATLANTA CENTER
FSS: MACON FLIGHT SERVICE STATION
NOTAMs facility: MCN (NOTAM-D service available)
Attendance: UNATNDD
Wind indicator: yes
Segmented circle: yes
Lights: ACTVT MIRL RWY 14/32 -CTAF.

Airport Communications

CTAF: 122.9
WX AWOS-3 at ACJ (19 nm SE): 128.375 (229-928-0934)

Nearby radio navigation aids

VOR radial/distance  VOR name  Freq  Var
LSFr099/25.0LAWSON VOR/DME111.4002W
CSGr126/32.8COLUMBUS VORTAC117.1001E
EUFr056/37.6EUFAULA VORTAC109.2002E
PZDr346/39.2PECAN VOR/DME116.1002W

 
NDB name  Hdg/Dist  Freq  Var  ID
LINDBERGH292/21.124204WLKG .-.. -.- --.
MONTEZUMA263/25.742604WIZS .. --.. ...
LAWSON093/26.433502WAWS .- .-- ...
CONEY304/36.840006WOHY --- .... -.--

Airport Services

Parking: tiedowns
Airframe service: NONE
Powerplant service: NONE
Bottled oxygen: NONE
Bulk oxygen: NONE

Runway Information

Runway 14/32

Dimensions: 3200 x 75 ft. / 975 x 23 m
Surface: asphalt, in excellent condition
Weight bearing capacity: 
Single wheel: 14.0
Runway edge lights: medium intensity
RUNWAY 14  RUNWAY 32
Latitude: 32-17.160500N32-16.777000N
Longitude: 084-30.435167W084-30.008167W
Traffic pattern: leftleft
Markings: basic, in good conditionbasic, in good condition
Obstructions: 34 ft. trees, 1050 ft. from runway, 200 ft. left of centerline, 25:1 slope to clear38 ft. trees, 1492 ft. from runway, 210 ft. right of centerline, 34:1 slope to clear

Airport Ownership and Management from official FAA records

Ownership: Publicly-owned
Owner: MARION COUNTY
PO BOX 481
BUENA VISTA, GA 31803
Phone 229-649-2603
Manager: GEORGE NEAL
100 EAST BURKHALTER AVE, PO BOX 481
BUENA VISTA, GA 31803
Phone 229-649-2603

Airport Operational Statistics

Aircraft operations: avg 23/week *
50% transient general aviation
50% local general aviation
* for 12-month period ending 31 December 2020

Additional Remarks

PAEW ON & INVOF RWY.
FOR CD CTC ATLANTA APCH AT 678-364-6132, WHEN APCH CLSD CTC ATLANTA ARTCC AT 770-210-7692.

Instrument Procedures

There are no published instrument procedures at 82A.

Some nearby airports with instrument procedures:

KACJ - Jimmy Carter Regional Airport (19 nm SE)
6A1 - Butler Municipal Airport (22 nm NE)
KLSF - Lawson Army Airfield (Fort Benning) (25 nm W)
53A - Dr. C P Savage Sr. Airport (25 nm E)
KCSG - Columbus Airport (26 nm NW)
 
Loc | Ops | Rwys | IFR | FBO | Links
Com | Nav | Svcs | Stats | Notes
Area around 82A (Marion County Airport)
 
Road maps at: MapQuest Bing Google
 
Aerial photo
WARNING: Photo may not be current or correct
Aerial photo of 82A (Marion County Airport)
Do you have a better or more recent aerial photo of Marion County Airport that you would like to share? If so, please send us your photo.

 
Sectional chart

 
Airport distance calculator
Flying to Marion County Airport? Find the distance to fly.

From to 82A

Sunrise and sunset
Times for 16-May-2022
 Local
(UTC-4)
 Zulu
(UTC)
Morning civil twilight06:1310:13
Sunrise06:4010:40
Sunset20:2800:28
Evening civil twilight20:5500:55

Current date and time
Zulu (UTC)  17-May-2022 01:04:35
Local (UTC-4)  16-May-2022 21:04:35
 
METAR
KACJ 
19nm SE 
170030Z AUTO 28005KT 10SM BKN060 30/17 A2988 RMK AO2
K6A1 
21nm NE 
170055Z AUTO 29003KT 10SM CLR 27/16 A2988 RMK AO2 T02730158
KLSF 
25nm W 
170056Z AUTO 00000KT 10SM CLR 24/19 A2984 RMK AO2 SLPNO T02400193 $
KCSG 
27nm NW 
170051Z 32006KT 10SM CLR 29/17 A2986 RMK AO2 SLP107 T02890167
TAF
KLSF 
25nm W 
162100Z 1621/1803 29009KT 9999 SCT055 SCT100 BKN250 QNH2980INS TEMPO 1621/1623 31011G17KT 9999 VCSH BECMG 1623/1700 33005KT 9999 FEW035 QNH2983INS TEMPO 1708/1712 00000KT 3200 BR SKC BECMG 1712/1713 02004KT 9999 SKC QNH3003INS BECMG 1717/1718 33008KT 9999 SKC QNH2996INS TEMPO 1718/1722 33010G15KT TX33/1721Z TN14/1711Z LAST NO AMDS AFT 1703 NEXT 1713
KCSG 
27nm NW 
162151Z 1622/1718 30011G21KT P6SM VCSH SCT050 FM170000 33005KT P6SM FEW250 FM171000 02004KT P6SM SKC FM171600 01008KT P6SM SKC
NOTAMs
Click for the latest NOTAMs
NOTAMs are issued by the DoD/FAA and will open in a separate window not controlled by AirNav.

 

 
 

FBO, Fuel Providers, and Aircraft Ground Support

  
 Business Name 
 
 Contact 
 
 Services / Description 
 
Fuel Prices
 
Comments
  
Marion County Commission 229-314-5227
[web site]
[email]
Aviation fuel, Aircraft parking (ramp or tiedown)

More info about Marion County Commission
100LL
SS $4.50 
 Updated 21-Jan-2022
 
   write
SS=Self service
Update Fuel Prices
 

Would you like to see your business listed on this page?

 If your business provides an interesting product or service to pilots, flight crews, aircraft, or users of the Marion County Airport, you should consider listing it here.  To start the listing process, click on the button below
 
Add a business
 

Other Pages about Marion County Airport

Update a link
 
Copyright © AirNav, LLC. All rights reserved. Privacy Policy  Contact